YO8RXT-3 Weather Reports


time (UTC)temp
C
wind
direction
speed
KPH
gust
KPH
rain 1hr
cm
rain 24hr
cm
rain mn
cm
humidity
%
barometer
mb
20260510223503 12 3.2 0.0 0.00 0.00 0.00 88 1014.0
20260510220503 12 3.2 0.0 0.00 0.00 0.00 88 1014.0
20260510213502 12 3.2 0.0 0.00 0.00 0.00 94 1014.0
20260510210502 12 250 4.8 0.0 0.00 0.00 0.00 88 1014.0
20260510203502 12 220 8.0 0.0 0.00 0.00 0.00 88 1014.0
20260510200501 12 210 3.2 0.0 0.00 0.00 0.00 88 1014.0
20260510193502 12 40 8.0 0.0 0.00 0.00 0.00 82 1014.0
20260510190503 12 20 4.8 0.0 0.00 0.00 0.00 82 1014.0
20260510183502 12 360 8.0 0.0 0.00 0.00 0.00 82 1014.0
20260510180502 13 20 8.0 0.0 0.00 0.00 0.00 82 1014.0
20260510173502 15 20 8.0 0.0 0.00 0.00 0.00 77 1013.0
20260510170502 16 10 9.7 0.0 0.00 0.00 0.00 72 1014.0
20260510163502 17 360 12.9 0.0 0.00 0.00 0.00 68 1014.0
20260510160502 17 360 12.9 0.0 0.00 0.00 0.00 68 1014.0
20260510153503 17 350 16.1 0.0 0.00 0.00 0.00 64 1014.0
20260510150502 17 330 16.1 0.0 0.00 0.00 0.00 68 1014.0
20260510143502 17 350 16.1 0.0 0.00 0.00 0.00 64 1014.0
20260510140502 17 330 17.7 0.0 0.00 0.00 0.00 73 1014.0
20260510133503 17 320 17.7 0.0 0.00 0.00 0.00 68 1014.0
20260510130503 17 330 20.9 0.0 0.00 0.00 0.00 77 1014.0
20260510123502 16 320 22.5 0.0 0.00 0.00 0.00 77 1014.0
20260510120503 15 300 20.9 0.0 0.00 0.00 0.00 82 1015.0
20260510113503 13 290 20.9 0.0 0.00 0.00 0.00 88 1015.0
20260510110503 13 300 20.9 0.0 0.00 0.00 0.00 88 1015.0
20260510103502 13 290 20.9 0.0 0.00 0.00 0.00 88 1015.0
20260510100503 13 300 16.1 0.0 0.00 0.00 0.00 94 1015.0
20260510093502 13 300 17.7 0.0 0.00 0.00 0.00 94 1015.0
20260510090502 13 300 17.7 0.0 0.00 0.00 0.00 94 1015.0
20260510083502 13 300 17.7 0.0 0.00 0.00 0.00 94 1015.0
20260510080503 13 300 20.9 0.0 0.00 0.00 0.00 88 1015.0
20260510073503 13 300 17.7 0.0 0.00 0.00 0.00 94 1015.0
20260510070502 12 290 17.7 0.0 0.00 0.00 0.00 94 1015.0
20260510063502 12 290 20.9 0.0 0.00 0.00 0.00 94 1015.0
20260510060502 12 300 16.1 0.0 0.00 0.00 0.00
20260510053502 12 300 17.7 0.0 0.00 0.00 0.00 94 1015.0
20260510050502 12 310 17.7 0.0 0.00 0.00 0.00 94 1015.0
20260510043502 12 320 24.1 0.0 0.00 0.00 0.00 94 1015.0
20260510040502 12 320 24.1 0.0 0.00 0.00 0.00 94 1015.0
20260510033502 12 320 22.5 0.0 0.00 0.00 0.00 94 1015.0
20260510030501 12 330 24.1 0.0 0.00 0.00 0.00 94 1014.0
20260510023503 12 320 22.5 0.0 0.00 0.00 0.00 94 1014.0
20260510020502 12 330 20.9 0.0 0.00 0.00 0.00 100 1014.0
20260510013503 12 330 20.9 0.0 0.00 0.00 0.00 100 1014.0
20260510010503 12 330 17.7 0.0 0.00 0.00 0.00 100 1015.0
20260510003502 12 320 14.5 0.0 0.00 0.00 0.00 100 1015.0
20260510000503 12 330 17.7 0.0 0.00 0.00 0.00 100 1015.0
20260509233502 13 320 17.7 0.0 0.00 0.00 0.00 94 1015.0
20260509230502 13 330 17.7 0.0 0.00 0.00 0.00 94 1015.0